Location: Vancouver
(49.2500°N, 123.1330°W)
Time: 12:18:22
(UTC-08:00)

Daily predictions for brighter satellites

Satellite Brightness Start Highest point End
(mag) Time Altitude Azimuth Time Altitude Azimuth Time Altitude Azimuth
Cosmos 1484 Rocket 4.4 16:48:19 10° E 16:50:11 13° ENE 16:52:02 10° NNE
ATLAS 2AS CENTAUR R/B 3.2 16:42:47 10° NW 16:51:00 88° SW 16:58:43 10° SE
Cosmos 1606 4.2 16:49:31 10° SW 16:53:13 39° WNW 16:56:56 10° N
APEX 4.2 16:47:28 10° SSW 16:53:44 84° WNW 16:58:36 10° NNE
CZ-2C R/B 2.9 16:50:04 10° SE 16:54:49 43° ENE 16:59:41 10° N
GEOS 3 Rocket 4.4 16:50:48 10° E 16:55:12 30° NNE 16:59:38 10° NNW
SJ-12 4.4 16:53:00 10° SE 16:56:51 40° ENE 17:00:44 10° N
Cosmos 1455 Rocket 3.5 16:52:53 10° N 16:57:03 39° ENE 17:01:13 10° SE
EO 1 Del DPAF 3.4 16:54:01 10° NNE 16:57:55 82° WNW 17:01:48 10° SSW
Cosmos 2263 Rocket 3.2 16:52:43 10° WSW 16:58:03 42° NW 17:03:27 10° NNE
MOS 1 4.4 16:53:38 10° SE 16:59:06 53° ENE 17:04:35 10° N
Cosmos 1125 Rocket 3.8 16:55:14 10° SSW 17:00:32 73° WNW 17:05:53 10° NNE
CZ-3A R/B 3.4 16:56:55 10° SW 17:01:21 73° SE 17:23:41 11° ENE
CSL-04 Rocket 4.3 17:03:10 10° S 17:08:36 64° WSW 17:14:08 10° NNW
SL-8 Rocket 3.9 17:05:31 10° N 17:11:43 80° E 17:17:53 10° SSE
IDEFIX/ARIANE 42P 2.6 17:07:28 10° SSE 17:12:33 58° ENE 17:17:39 10° N
AQUARIUS 4.2 17:08:31 10° SSE 17:12:54 56° ENE 17:17:20 10° N
Okean 3 4.0 17:09:14 10° SSW 17:13:29 64° WNW 17:17:43 10° N
SL-27 R/B 3.4 17:12:12 10° NNW 17:15:49 56° WSW 17:19:23 10° S
Thor Agena Rocket 3.9 17:13:16 10° NNE 17:18:16 44° E 17:23:16 10° S
Cosmos 1812 3.2 17:14:55 10° SSE 17:18:31 39° E 17:22:08 10° NNE
Cosmos 1844 Rocket 2.7 17:16:38 10° SSW 17:22:14 84° ESE 17:27:56 10° NNE
Abrixas 3.0 17:20:39 10° W 17:23:34 56° SSW 17:26:28 10° ESE
Cosmos 2366 rocket 4.0 17:17:46 10° N 17:24:11 74° E 17:30:28 10° SSE
Cosmos 2251 Rocket 3.9 17:19:44 10° NNW 17:25:06 73° WSW 17:30:23 10° SSE
Cosmos 1959 Rocket 4.5 17:19:21 10° N 17:25:35 84° E 17:31:50 10° S
CZ-2C R/B 3.8 17:21:29 10° NNE 17:25:57 76° WNW 17:30:24 10° SSW
Okean 1 3.8 17:27:59 10° SSE 17:31:48 41° E 17:35:39 10° NNE
Cosmos 2218 Rocket 4.1 17:25:31 10° N 17:31:52 88° W 17:38:05 10° S
CORIOLIS 4.1 17:29:18 10° SSE 17:34:42 80° ENE 17:40:06 10° NNW
ISS -3.4 17:35:26 10° WSW 17:38:45 84° NNW 17:40:31 25° ENE
Cosmos 1346 Rocket 3.4 17:38:51 10° SSE 17:42:23 34° E 17:44:26 20° NE
Meteor 1-18 Rocket 4.2 17:39:00 10° S 17:44:39 75° E 17:50:27 10° NNE
Cosmos 1544 Rocket 4.4 17:41:24 10° NNW 17:45:46 56° W 17:50:09 10° S
Cosmos 1844 3.7 17:40:24 10° SSW 17:45:58 87° WNW 17:51:16 12° NNE
USA 116 4.4 17:41:53 10° NNE 17:47:19 84° ESE 17:52:33 10° SSW
Cosmos 2297 4.3 17:44:32 10° S 17:49:33 34° ESE 17:52:19 22° ENE
Meteor 2-21 4.4 17:43:26 10° N 17:49:38 67° ENE 17:55:44 10° SSE
COSMO-SKYMED 1 3.3 17:47:47 21° NE 17:49:55 33° E 17:53:50 10° SSE
Timation 2 Rocket 4.1 17:44:54 10° NNW 17:51:45 79° ENE 17:58:40 10° SE
SL-24 DEB 4.2 17:52:05 10° N 17:56:50 67° E 18:01:30 10° S
SMAP 3.8 17:53:31 10° S 17:58:06 57° W 18:02:42 10° NNW
Cosmos 1821 Rocket 4.2 17:52:24 10° N 17:58:15 45° ENE 18:04:04 10° SE
Genesis I 4.3 17:55:38 10° NW 17:59:25 46° WSW 18:03:10 10° SSE
NOAA 12 4.4 17:54:50 10° SE 17:59:44 41° ENE 18:04:39 10° N
Cosmos 2278 Rocket 2.1 17:55:29 10° SSW 18:01:07 80° ESE 18:05:32 17° NNE
ATLAS CENTAUR R/B 3.8 18:00:50 10° NNW 18:01:56 11° N 18:03:00 10° N
SL-8 R/B 4.1 18:01:51 10° SW 18:06:30 52° SSE 18:08:26 32° E
Meteor 2-14 Rocket 4.4 18:03:25 10° N 18:09:35 70° ENE 18:15:42 10° SSE
Cosmos 1536 Rocket 3.8 18:06:34 10° SSW 18:11:02 71° W 18:15:32 10° N
Cosmos 407 Rocket 4.0 18:08:13 10° N 18:12:55 35° ENE 18:13:20 34° ENE
USA 234 3.2 18:09:37 26° ENE 18:13:40 82° SE 18:20:13 10° SW
Cosmos 1743 2.6 18:10:22 10° N 18:14:15 69° ENE 18:18:06 10° SSE
Cosmos 1025 Rocket 4.1 18:10:42 10° SSE 18:13:23 28° ESE 18:13:23 28° ESE
Cosmos 1975 3.8 18:11:09 10° NNW 18:15:06 48° W 18:18:59 10° SSW
METEOR-M 4.3 18:10:36 10° SE 18:15:41 47° ENE 18:20:49 10° N
Spot 2 Rocket 4.4 18:16:52 30° NE 18:16:52 30° NE 18:20:26 10° N
COSMOS 2487 3.6 18:12:39 10° NNW 18:16:08 47° WSW 18:19:35 10° S
Cosmos 921 Rocket 3.2 18:12:48 10° S 18:16:52 45° ESE 18:17:13 44° E
ERBS 3.7 18:15:33 10° NW 18:18:01 26° N 18:18:01 26° N
Cosmos 1500 4.0 18:14:51 10° NNW 18:18:35 52° W 18:22:20 10° S
Intercosmos 25 2.7 18:15:14 10° N 18:18:36 85° E 18:21:48 10° S
CZ-4 R/B 3.8 18:15:18 10° SSW 18:18:48 26° W 18:22:17 10° NW
YAOGAN 1 4.2 18:15:23 10° SSW 18:19:23 36° W 18:23:25 10° NNW
Cosmos 1833 Rocket 2.6 18:13:52 10° NNW 18:19:33 90° WSW 18:25:12 10° SSE
SKYMED 3 4.5 18:18:11 31° NNE 18:20:07 65° ESE 18:24:26 10° S
BREEZE-M DEB (TANK) 3.3 18:13:41 10° W 18:20:49 85° N 18:21:34 55° E
Cosmos 2082 Rocket 2.3 18:16:54 10° NNW 18:22:34 76° WSW 18:28:14 10° SSE
Cosmos 1238 Rocket 4.3 18:21:04 10° SW 18:23:41 27° WNW 18:26:32 10° NNW
Tiangong 1 3.3 18:21:38 10° SSW 18:23:18 17° S 18:23:18 17° S
Cosmos 1484 Rocket 3.1 18:20:29 10° S 18:24:12 64° W 18:27:54 10° NNW
NOSS 3-4 (A) 3.7 18:20:05 10° NW 18:27:01 77° NE 18:32:41 18° SE
NOSS 3-4 (C) 3.7 18:20:11 10° NW 18:27:07 76° NE 18:32:42 19° SE
Meteor 1-19 Rocket 4.2 18:21:41 10° S 18:27:24 62° E 18:31:39 19° NNE
Nadezhda 3 Rocket 3.9 18:21:34 10° S 18:27:47 83° E 18:34:07 10° N
ALOS 4.5 18:34:09 13° N 18:34:09 13° N 18:34:38 10° N
Cosmos 1371 Rocket 4.3 18:27:34 10° S 18:32:34 44° ESE 18:32:34 44° ESE
GEOS 3 Rocket 3.6 18:28:52 17° SE 18:32:53 83° SW 18:38:03 10° NW
CZ-2C R/B 4.4 18:28:46 10° SSW 18:33:11 30° W 18:37:44 10° NNW
Meteor 2-16 Rocket 4.4 18:27:27 10° N 18:33:35 88° WSW 18:39:41 10° S
Meteor 1-15 Rocket 4.3 18:28:17 10° N 18:34:07 56° ENE 18:39:50 10° SSE
NOSS 3-3 (A) 4.1 18:30:49 10° SW 18:37:07 81° NW 18:40:30 32° NE
NOSS 3-3 (C) 4.1 18:30:54 10° SW 18:37:13 81° NW 18:40:35 32° NE
SKYMED 2 3.5 18:36:24 36° N 18:38:10 85° WNW 18:42:30 10° SSW
BREEZE M DEB (TANK) 3.4 18:38:19 10° W 18:41:50 69° SSW 18:46:06 28° ESE
Meteor 1-13 Rocket 4.3 18:41:43 10° SSW 18:47:26 79° WNW 18:52:48 13° N
Okean 1-7 Rocket 3.8 18:49:13 10° SSW 18:53:42 68° W 18:54:56 45° NNW
Meteor 1-23 Rocket 4.1 18:48:15 10° S 18:53:52 65° E 18:53:56 64° E
Resurs 01 Rocket 4.0 18:58:37 13° N 18:58:37 13° N 18:59:05 10° N
CZ-3B DEB 2.9 18:50:37 10° WSW 18:55:34 78° NNW 18:59:57 38° ENE
BREEZE-M DEB (TANK) 2.8 18:49:47 10° WNW 18:55:39 76° N 18:55:53 73° NE
Meteor 2-9 Rocket 4.1 18:54:08 10° NNW 18:59:37 80° W 19:04:58 10° S
FALCON 9 R/B 4.2 18:42:49 10° WSW 19:00:52 35° SSW 19:04:45 23° SSE
Cosmos 1190 Rocket 3.9 18:56:43 10° NNW 19:02:00 88° WSW 19:02:35 72° SSE
Meteor 2-4 Rocket 3.4 18:57:36 10° S 19:02:58 85° E 19:03:13 81° NE
Cosmos 1934 Rocket 4.3 19:08:16 10° NNW 19:14:25 67° W 19:20:37 10° S
ISS -0.5 19:12:11 10° WNW 19:13:11 18° WNW 19:13:11 18° WNW
COSMO-SKYMED 1 4.3 19:25:00 27° NW 19:26:02 30° WNW 19:29:49 10° SW
BREEZE-M DEB (TANK) 3.8 19:12:58 10° W 19:29:34 70° N 19:29:50 69° NNE
Cosmos 2297 4.5 19:28:11 10° SW 19:33:35 46° NW 19:34:17 44° NNW
Cosmos 2278 Rocket 4.0 19:41:20 10° W 19:45:53 24° NW 19:47:24 22° NNW
USA 234 3.7 19:56:58 52° NNW 19:56:58 52° NNW 20:02:49 10° W
CZ-3B DEB 4.4 21:23:48 10° WNW 21:28:13 44° NW 21:28:13 44° NW
